Location: Miles
(41.4492°N, 81.6087°W)
Time: 15:10:28
(UTC+00:00)

A-11 Canister half - Pass Details

Date: 17 September 2024
Orbit: 1515 x 1684 km, 47.2° (Epoch: 11 October)

Event Time Altitude Azimuth Distance (km) Brightness Sun altitude
Rises 04:06:03 0° 291° (WNW) 4,676 12.0 -43.3°
Reaches altitude 10° 04:09:07 10° 293° (WNW) 3,684 11.4 -43.5°
Enters shadow 04:15:23 48° 306° (NW) 1,902 9.5 -44.0°
